Weather History for Poplar Bluff, MO

Change the Weather History Date:

Saturday, January 25, 2014

  Actual Average Record
Temperature  
Mean Temperature 41 °F -  
Max Temperature 54 °F 47 °F 75 °F (1950)
Min Temperature 27 °F 26 °F -1 °F (1930)
Degree Days  
Heating Degree Days 24    
Moisture  
Dew Point 13 °F    
Average Humidity 35    
Maximum Humidity 61    
Minimum Humidity 23    
Precipitation  
Precipitation 0.00 in - - ()
Sea Level Pressure  
Sea Level Pressure 29.91 in    
Wind  
Wind Speed 13 mph (West)    
Max Wind Speed 24 mph    
Max Gust Speed 36 mph    
Visibility 10 miles    
Events      
Averages and records for this station are not official NWS values.
T = Trace of Precipitation, MM = Missing Value Source: NWS Daily Summary

Daily Weather History Graph

Daily Weather History Graph

Search for Another Location

Airport:

Trip Planner

Search our weather history database for the weather conditions in past years. The results will help you decide how hot, cold, wet, or windy it might be!

Date:

Astronomy

Jan. 25, 2014 Rise Set
Actual Time 7:08 AM CST 5:19 PM CST
Civil Twilight 6:40 AM CST 5:47 PM CST
Nautical Twilight 6:09 AM CST 6:18 PM CST
Astronomical Twilight 5:38 AM CST 6:49 PM CST
Moon 1:41 AM CST (1/25) 12:19 PM CST (1/25)
Length of Visible Light 11h 06m
Length of Day
10h 10m
Waning Crescent, 34% of the Moon is Illuminated
Jan 25
Waning Crescent
Jan 30
New
Feb 6
First Quarter
Feb 14
Full
Feb 22
Last Quarter

Hourly Weather History & Observations

Time (CST) Temp. Windchill Dew Point Humidity Pressure Visibility Wind Dir Wind Speed Gust Speed Precip Events Conditions
12:53 AM 30.0 °F 19.5 °F 7.0 °F 38% 29.96 in 10.0 mi SW 13.8 mph 20.7 mph N/A   Mostly Cloudy
1:53 AM 30.9 °F 19.1 °F 7.0 °F 37% 29.91 in 10.0 mi SW 18.4 mph - N/A   Overcast
2:53 AM 32.0 °F 21.6 °F 7.0 °F 35% 29.87 in 10.0 mi SW 15.0 mph - N/A   Overcast
3:53 AM 33.1 °F 22.2 °F 8.1 °F 35% 29.84 in 10.0 mi SW 17.3 mph 23.0 mph N/A   Overcast
4:53 AM 33.1 °F 23.4 °F 8.1 °F 35% 29.84 in 10.0 mi SW 13.8 mph 20.7 mph N/A   Overcast
5:53 AM 32.0 °F 23.0 °F 9.0 °F 38% 29.83 in 10.0 mi SW 11.5 mph - N/A   Clear
6:53 AM 30.9 °F 23.5 °F 10.0 °F 42% 29.86 in 10.0 mi SW 8.1 mph - N/A   Clear
7:53 AM 32.0 °F 25.6 °F 10.9 °F 42% 29.87 in 10.0 mi SW 6.9 mph - N/A   Partly Cloudy
8:53 AM 37.9 °F 32.1 °F 12.0 °F 35% 29.88 in 10.0 mi SW 8.1 mph - N/A   Partly Cloudy
9:53 AM 46.9 °F - 16.0 °F 29% 29.88 in 10.0 mi West 10.4 mph - N/A   Clear
10:53 AM 52.0 °F - 21.0 °F 30% 29.88 in 10.0 mi West 10.4 mph 21.9 mph N/A   Clear
11:53 AM 54.0 °F - 19.9 °F 26% 29.87 in 10.0 mi NW 24.2 mph 35.7 mph N/A   Clear
12:53 PM 54.0 °F - 21.9 °F 29% 29.85 in 10.0 mi WNW 20.7 mph 31.1 mph N/A   Mostly Cloudy
1:53 PM 54.0 °F - 23.0 °F 30% 29.86 in 10.0 mi WNW 16.1 mph 29.9 mph N/A   Mostly Cloudy
2:53 PM 53.1 °F - 21.9 °F 30% 29.88 in 10.0 mi NW 16.1 mph 27.6 mph N/A   Mostly Cloudy
3:53 PM 52.0 °F - 21.0 °F 30% 29.91 in 10.0 mi NW 16.1 mph 31.1 mph N/A   Partly Cloudy
4:53 PM 48.0 °F - 21.9 °F 36% 29.94 in 10.0 mi NW 12.7 mph - N/A   Scattered Clouds
5:53 PM 45.0 °F 39.7 °F 19.9 °F 37% 29.97 in 10.0 mi NNW 10.4 mph - N/A   Clear
6:53 PM 41.0 °F 34.7 °F 15.1 °F 35% 29.99 in 10.0 mi NNW 10.4 mph - N/A   Clear
7:53 PM 39.9 °F 34.5 °F 5.0 °F 23% 30.00 in 10.0 mi NNW 8.1 mph - N/A   Clear
8:53 PM 37.0 °F 32.4 °F 1.9 °F 23% 30.01 in 10.0 mi NW 5.8 mph - N/A   Clear
9:53 PM 32.0 °F - 9.0 °F 38% 30.00 in 10.0 mi Calm Calm - N/A   Clear
10:53 PM 28.0 °F 24.2 °F 10.9 °F 49% 29.98 in 10.0 mi East 3.5 mph - N/A   Clear
11:53 PM 27.0 °F 23.0 °F 15.1 °F 61% 29.97 in 10.0 mi NNW 3.5 mph - N/A   Clear